Location: Innsbruck
(47.2657°N, 11.3914°E)
Time: 20:42:24
(UTC+01:00)

BEESAT 2 - Pass Details

Date: 01 December 2021
Orbit: 498 x 513 km, 64.9° (Epoch: 24 January)

Event Time Altitude Azimuth Distance (km) Brightness Sun altitude
Exits shadow 06:12:40 10° 343° (NNW) 1,790 ? -14.4°
Reaches altitude 10° 06:12:47 10° 344° (NNW) 1,753 ? -14.3°
Maximum altitude 06:16:00 24° 39° (NE) 1,112 ? -13.8°
Drops below altitude 10° 06:19:12 10° 94° (E) 1,742 ? -13.3°
Sets 06:21:41 0° 109° (ESE) 2,623 ? -12.9°
